2023/01/27 00:00:00,114.9,-4.4
2023/01/27 00:10:00,114.8,-4.5
2023/01/27 00:20:00,114.7,-4.6
2023/01/27 00:30:00,114.6,-4.1
2023/01/27 00:40:00,114.4,-4.3
2023/01/27 00:50:00,114.3,-4.6
2023/01/27 01:00:00,114.2,-4.7
2023/01/27 01:10:00,114.2,-4.7
2023/01/27 01:20:00,114.1,-4.6
2023/01/27 01:30:00,114.0,-4.5
2023/01/27 01:40:00,113.9,-4.6
2023/01/27 01:50:00,113.8,-4.3
2023/01/27 02:00:00,113.7,-4.5
2023/01/27 02:10:00,113.6,-4.3
2023/01/27 02:20:00,113.5,-4.3
2023/01/27 02:30:00,113.4,-4.6
2023/01/27 02:40:00,113.3,-4.6
2023/01/27 02:50:00,113.2,-4.5
2023/01/27 03:00:00,113.1,-4.3
2023/01/27 03:10:00,113.0,-4.3
2023/01/27 03:20:00,112.9,-4.3
2023/01/27 03:30:00,112.8,-3.9
2023/01/27 03:40:00,112.7,-4.2
2023/01/27 03:50:00,112.6,-4.0
2023/01/27 04:00:00,112.5,-4.1
2023/01/27 04:10:00,112.5,-4.2
2023/01/27 04:20:00,112.4,-3.9
2023/01/27 04:30:00,112.4,-3.6
2023/01/27 04:40:00,112.3,-3.6
2023/01/27 04:50:00,112.2,-3.6
2023/01/27 05:00:00,112.2,-3.8
2023/01/27 05:10:00,112.1,-3.7
2023/01/27 05:20:00,112.0,-3.6
2023/01/27 05:30:00,111.9,-3.4
2023/01/27 05:40:00,111.7,-3.3
2023/01/27 05:50:00,111.6,-3.3
2023/01/27 06:00:00,111.8,-3.4
2023/01/27 06:10:00,111.8,-3.0
2023/01/27 06:20:00,111.9,-3.3
2023/01/27 06:30:00,112.0,-3.1
2023/01/27 06:40:00,112.0,-3.4
2023/01/27 06:50:00,111.9,-3.2
2023/01/27 07:00:00,111.9,-3.3
2023/01/27 07:10:00,112.1,-3.2
2023/01/27 07:20:00,112.3,-3.1
2023/01/27 07:30:00,112.4,-3.0
2023/01/27 07:40:00,112.3,-3.1
2023/01/27 07:50:00,112.3,-3.1
2023/01/27 08:00:00,112.3,-2.8
2023/01/27 08:10:00,112.2,-2.5
2023/01/27 08:20:00,112.2,-2.3
2023/01/27 08:30:00,112.1,-2.6
2023/01/27 08:40:00,112.1,-2.5
2023/01/27 08:50:00,112.0,-2.5
2023/01/27 09:00:00,111.8,-2.4
2023/01/27 09:10:00,111.7,-1.9
2023/01/27 09:20:00,111.7,-1.7
2023/01/27 09:30:00,111.6,-1.8
2023/01/27 09:40:00,111.6,-1.6
2023/01/27 09:50:00,111.4,-1.4
2023/01/27 10:00:00,111.3,-1.3
2023/01/27 10:10:00,111.2,-1.4
2023/01/27 10:20:00,111.1,-0.8
2023/01/27 10:30:00,110.9,-0.3
2023/01/27 10:40:00,110.7,-0.6
2023/01/27 10:50:00,110.9,-0.8
2023/01/27 11:00:00,110.9,-1.1
2023/01/27 11:10:00,110.9,-1.2
2023/01/27 11:20:00,110.8,-1.4
2023/01/27 11:30:00,111.0,-1.1
2023/01/27 11:40:00,111.4,-1.0
2023/01/27 11:50:00,111.5,-0.9
2023/01/27 12:00:00,111.5,-1.2
2023/01/27 12:10:00,111.6,-1.1
2023/01/27 12:20:00,111.5,-0.8
2023/01/27 12:30:00,111.4,-1.1
2023/01/27 12:40:00,111.2,-1.2
2023/01/27 12:50:00,111.2, 0.1
2023/01/27 13:00:00,111.1, 0.8
2023/01/27 13:10:00,110.9, 0.2
2023/01/27 13:20:00,110.8,-0.4
2023/01/27 13:30:00,110.6,-1.1
2023/01/27 13:40:00,110.7, 0.5
2023/01/27 13:50:00,110.7, 2.5
2023/01/27 14:00:00,110.6, 0.9
2023/01/27 14:10:00,110.5,-1.0
2023/01/27 14:20:00,111.1,-1.4
2023/01/27 14:30:00,112.2,-1.5
2023/01/27 14:40:00,113.1,-1.7
2023/01/27 14:50:00,114.0,-2.0
2023/01/27 15:00:00,114.9,-2.4
2023/01/27 15:10:00,116.0,-2.2
2023/01/27 15:20:00,116.5,-2.3
2023/01/27 15:30:00,116.4,-2.6
2023/01/27 15:40:00,116.6,-2.7
2023/01/27 15:50:00,117.4,-2.9
2023/01/27 16:00:00,118.0,-3.0
2023/01/27 16:10:00,118.2,-3.0
2023/01/27 16:20:00,118.3,-3.1
2023/01/27 16:30:00,118.8,-3.1
2023/01/27 16:40:00,119.5,-3.2
2023/01/27 16:50:00,119.7,-3.0
2023/01/27 17:00:00,120.1,-2.9
2023/01/27 17:10:00,120.3,-3.2
2023/01/27 17:20:00,120.6,-3.1
2023/01/27 17:30:00,121.1,-3.3
2023/01/27 17:40:00,121.4,-3.2
2023/01/27 17:50:00,122.3,-3.5
2023/01/27 18:00:00,123.2,-4.0
2023/01/27 18:10:00,123.4,-4.1
2023/01/27 18:20:00,123.1,-4.1
2023/01/27 18:30:00,123.5,-4.1
2023/01/27 18:40:00,124.7,-4.1
2023/01/27 18:50:00,125.3,-4.1
2023/01/27 19:00:00,126.0,-4.3
2023/01/27 19:10:00,126.7,-4.4
2023/01/27 19:20:00,127.5,-4.5
2023/01/27 19:30:00,128.5,-4.4
2023/01/27 19:40:00,129.1,-4.5
2023/01/27 19:50:00,129.5,-4.8
2023/01/27 20:00:00,129.4,-4.6
2023/01/27 20:10:00,129.1,-4.8
2023/01/27 20:20:00,129.2,-4.6
2023/01/27 20:30:00,129.5,-4.7
2023/01/27 20:40:00,129.3,-4.5
2023/01/27 20:50:00,129.5,-4.6
2023/01/27 21:00:00,129.8,-4.7
2023/01/27 21:10:00,129.9,-4.6
2023/01/27 21:20:00,129.8,-4.7
2023/01/27 21:30:00,129.9,-4.6
2023/01/27 21:40:00,131.0,-4.6
2023/01/27 21:50:00,131.7,-4.6
2023/01/27 22:00:00,132.2,-4.6
2023/01/27 22:10:00,132.3,-4.6
2023/01/27 22:20:00,132.2,-4.5
2023/01/27 22:30:00,132.2,-4.3
2023/01/27 22:40:00,132.3,-4.4
2023/01/27 22:50:00,132.9,-4.3
2023/01/27 23:00:00,134.1,-4.3
2023/01/27 23:10:00,135.2,-4.2
2023/01/27 23:20:00,135.8,-4.2
2023/01/27 23:30:00,136.8,-4.3
2023/01/27 23:40:00,138.5,-3.9
2023/01/27 23:50:00,139.5,-4.3
